[[{"header":{"parameterUnit":"m.s-1","parameterCategory":1,"la1":30.2991,"la2":30.254,"lo1":-89.0895,"lo2":-89.0444,"dy":0.0017,"dx":0.0017,"nx":28,"ny":28,"refTime":"2025-08-05T03:00:00:Z","depth":0,"parameterNumber":2,"parameterNumberName":"U-component_of_WINDS"},"data":[0,0,0,0,0,0,0,0,0,0,0,0,0,0,0,0,0,0,0,0,0,0,0,0,0,0,0,0,0,0,0,0,0,0,0,0,0,0,0,0,0,0,0,0,0,0,0,0,0,0,0,0,0,0,0,0,0,0,-2.96,-2.9599,0,-2.9529,-2.9528,-2.9528,-2.9388,-2.9385,-2.9382,-2.938,-2.9311,-2.9312,-2.9312,0,0,0,0,0,0,0,0,0,0,0,0,0,-2.9618,-2.9618,-2.96,-2.9599,-2.9598,-2.9529,-2.9528,-2.9527,-2.9388,-2.9385,-2.9382,-2.9379,-2.9311,-2.9311,-2.9312,0,0,0,0,0,0,0,0,0,0,0,0,0,-2.9585,-2.9618,-2.96,-2.9521,-2.9513,-2.953,-2.9528,-2.9527,-2.9389,-2.9385,-2.9381,-2.9377,-2.931,-2.9311,-2.9312,-2.9402,0,0,-2.9316,-2.9316,0,0,0,0,0,0,0,0,-2.9587,-2.9584,-2.9533,-2.9526,-2.9517,-2.9463,-2.9509,-2.9485,-2.939,-2.9436,-2.938,-2.9375,-2.9365,-2.9361,-2.9357,-2.9399,-2.9396,-2.9316,-2.9317,-2.9317,-2.9317,0,0,0,0,0,0,0,-2.9589,-2.9587,-2.9572,-2.9533,-2.9523,-2.9489,-2.948,-2.9504,-2.9425,-2.9432,-2.9422,-2.9415,-2.936,-2.9357,-2.9355,-2.9395,-2.9316,-2.9317,-2.9318,-2.9318,-2.9506,-2.951,0,0,0,0,0,0,-2.9603,-2.959,-2.9574,-2.957,-2.9543,-2.9492,-2.9482,-2.9485,-2.9424,-2.9411,-2.9418,-2.9409,-2.9357,-2.9354,-2.9352,-2.9452,-2.9317,-2.9318,-2.9319,-2.9501,-2.9507,-2.9511,0,0,0,0,0,0,-2.9604,-2.9603,-2.9577,-2.9577,-2.9571,-2.9496,-2.9501,-2.9486,-2.9482,-2.9414,-2.94,-2.9429,-2.9353,-2.935,-2.939,-2.9448,-2.9319,-2.932,-2.9496,-2.9503,-2.9509,-2.9655,0,0,0,0,0,0,-2.9605,-2.9604,-2.9637,-2.9579,-2.9572,-2.9617,-2.9504,-2.9487,-2.9484,-2.947,-2.942,-2.9408,-2.935,-2.9389,-2.9391,-2.9447,-2.9321,-2.9491,-2.9499,-2.9507,-2.9645,-2.9666,-2.9684,0,0,0,0,0,-2.9606,-2.9682,-2.9639,-2.9638,-2.9611,-2.962,-2.9616,-2.9547,-2.9489,-2.9522,-2.9478,-2.941,-2.9441,-2.9395,-2.9396,-2.9453,-2.9487,-2.9497,-2.9506,-2.9636,-2.9662,-2.9683,0,0,0,0,0,0,-2.9751,-2.9673,-2.9625,-2.9684,-2.966,-2.9597,-2.9636,-2.9576,-2.9569,-2.9557,-2.9471,-2.9461,-2.9513,-2.9486,-2.9436,-2.9536,-2.9453,-2.9464,-2.9551,-2.9575,-2.9594,-2.96,-2.9321,0,0,0,0,0,-2.9789,-2.9803,-2.9734,-2.9793,-2.9783,-2.9712,-2.9714,-2.9662,-2.9633,-2.9623,-2.9582,-2.9558,-2.9562,-2.9567,-2.9567,-2.964,-2.9627,-2.9679,-2.9699,-2.9715,-2.9726,-2.9761,-2.9784,-2.9543,-2.9543,-2.9543,0,0,-2.987,-2.9829,-2.9843,-2.9821,-2.9796,-2.9812,-2.9704,-2.9726,-2.9738,-2.9626,-2.9661,-2.9631,-2.9598,-2.9655,-2.9678,-2.9635,-2.9789,-2.9727,-2.9741,-2.9742,-2.9774,-2.9797,-2.9817,-2.955,-2.9549,-2.9548,0,0,-3.0025,-2.9995,-3.004,-3.0017,-2.998,-2.9932,-2.9943,-2.9888,-2.9863,-2.9896,-2.9813,-2.9825,-2.9835,-2.9815,-2.9806,-2.9952,-2.9889,-2.9954,-3.0056,-3.0092,-3.0111,-3.0128,-3.018,-3.02,-2.9964,-2.9965,-2.9965,0,-3.013,-3.015,-3.0072,-3.0098,-3.0091,-2.9989,-3.0035,-3.0016,-2.9982,-2.998,-2.9931,-2.994,-2.9911,-2.9961,-2.9997,-2.9993,-3.0003,-2.996,-3.0115,-3.013,-3.0144,-3.0193,-3.0213,-2.9973,-2.9972,-2.9971,-2.997,0,-3.0281,-3.0296,-3.0337,-3.0305,-3.0302,-3.0339,-3.0266,-3.0273,-3.0221,-3.0178,-3.0213,-3.0175,-3.0165,-3.0173,-3.0123,-3.0216,-3.019,-3.013,-3.0045,-3.0177,-3.0221,-3.0239,-2.9985,-2.9982,-2.9979,-2.9977,0,0,-3.0527,-3.0449,-3.0465,-3.0449,-3.04,-3.041,-3.0442,-3.0431,-3.0438,-3.0418,-3.0442,-3.0451,-3.0394,-3.0385,-3.0331,-3.0363,-3.0481,-3.0298,-3.0296,-3.0334,-3.0581,-3.0628,-3.0651,-3.0438,-3.0441,-3.0444,-3.0584,0,-3.0671,-3.0719,-3.0649,-3.0714,-3.0727,-3.0629,-3.0656,-3.063,-3.059,-3.0596,-3.0553,-3.0561,-3.0485,-3.0478,-3.0505,-3.0461,-3.0529,-3.0449,-3.0461,-3.0462,-3.0473,-3.0673,-3.0723,-3.0857,-3.0601,-3.0603,-3.0605,0,-3.0846,-3.0832,-3.0898,-3.0843,-3.0846,-3.0872,-3.0855,-3.0862,-3.0829,-3.0798,-3.0787,-3.0723,-3.075,-3.0667,-3.0704,-3.0652,-3.0652,-3.0631,-3.0634,-3.0634,-3.0543,-3.0679,-3.0898,-3.0919,-3.0632,-3.063,-3.0628,0,-3.1019,-3.1017,-3.1055,-3.1044,-3.0982,-3.1002,-3.0977,-3.094,-3.0938,-3.0924,-3.0921,-3.0911,-3.0906,-3.09,-3.0835,-3.0781,-3.088,-3.0792,-3.0856,-3.0858,-3.0883,-3.0882,-3.1106,-3.0882,-3.0882,-3.0881,-3.0881,0,-3.1188,-3.1232,-3.1132,-3.1156,-3.1203,-3.1121,-3.117,-3.1135,-3.1103,-3.1119,-3.1034,-3.1051,-3.0964,-3.0971,-3.0921,-3.0959,-3.0957,-3.0934,-3.092,-3.0942,-3.0945,-3.0942,-3.0931,-3.0887,-3.0885,-3.0884,-3.0883,0,-3.139,-3.1324,-3.136,-3.1297,-3.1282,-3.1319,-3.1266,-3.1286,-3.124,-3.1261,-3.1261,-3.1191,-3.1195,-3.1129,-3.1121,-3.1087,-3.1149,-3.1118,-3.116,-3.115,-3.1218,-3.1213,-3.1449,-3.1475,-3.1234,-3.1237,-3.1239,0,-3.1502,-3.1534,-3.1474,-3.1477,-3.1456,-3.1464,-3.146,-3.1381,-3.1381,-3.1345,-3.137,-3.1367,-3.1361,-3.1373,-3.1321,-3.1315,-3.1284,-3.1366,-3.1282,-3.1303,-3.1285,-3.1285,-3.1288,-3.1385,-3.1388,-3.139,-3.1392,0,-3.1709,-3.1675,-3.1672,-3.1659,-3.1656,-3.1642,-3.1622,-3.1631,-3.1544,-3.1549,-3.1551,-3.1546,-3.1537,-3.1536,-3.1519,-3.1494,-3.143,-3.1419,-3.1433,-3.1457,-3.148,-3.1469,-3.1209,-3.1414,-3.1412,-3.141,-3.1409,-3.1408,-3.187,-3.1893,-3.1854,-3.1854,-3.183,-3.1813,-3.1828,-3.1784,-3.1784,-3.177,-3.1723,-3.1734,-3.17,-3.167,-3.1651,-3.1659,-3.1618,-3.164,-3.1645,-3.1652,-3.1665,-3.1478,-3.1656,-3.1655,-3.1654,-3.1654,-3.1653,0,-3.2072,-3.2042,-3.2042,-3.2017,-3.2017,-3.1954,-3.1928,-3.1933,-3.1943,-3.1916,-3.1911,-3.1914,-3.1912,-3.186,-3.1851,-3.1868,-3.1838,-3.1868,-3.1867,-3.1862,-3.1701,-3.169,-3.1892,-3.1892,-3.1892,-3.1892,-3.1892,-3.1892,-3.2178,-3.2213,-3.2175,-3.2197,-3.2166,-3.2175,-3.2166,-3.2151,-3.2128,-3.2135,-3.2132,-3.2097,-3.206,-3.2048,-3.2044,-3.2028,-3.203,-3.207,-3.2045,-3.1896,-3.1873,-3.1851,-3.184,-3.2071,-3.2071,-3.2205,-3.2207,-3.2208]},{"header":{"parameterUnit":"m.s-1","parameterCategory":1,"la1":30.2991,"la2":30.254,"lo1":-89.0895,"lo2":-89.0444,"dy":0.0017,"dx":0.0017,"nx":28,"ny":28,"refTime":"2025-08-05T03:00:00:Z","depth":0,"parameterNumber":3,"parameterNumberName":"V-component_of_WINDS"},"data":[0,0,0,0,0,0,0,0,0,0,0,0,0,0,0,0,0,0,0,0,0,0,0,0,0,0,0,0,0,0,0,0,0,0,0,0,0,0,0,0,0,0,0,0,0,0,0,0,0,0,0,0,0,0,0,0,0,0,0.3201,0.3201,0,0.3172,0.3172,0.3172,0.3183,0.3183,0.3184,0.3185,0.315,0.3148,0.3147,0,0,0,0,0,0,0,0,0,0,0,0,0,0.3263,0.3262,0.3201,0.3201,0.3201,0.3172,0.3172,0.3172,0.3182,0.3183,0.3184,0.3185,0.315,0.3148,0.3146,0,0,0,0,0,0,0,0,0,0,0,0,0,0.3235,0.3261,0.3201,0.3203,0.3203,0.3172,0.3172,0.3171,0.3182,0.3183,0.3184,0.3185,0.3151,0.3148,0.3146,0.3111,0,0,0.3139,0.3138,0,0,0,0,0,0,0,0,0.3237,0.3233,0.3203,0.3203,0.3202,0.3182,0.3181,0.3151,0.3182,0.319,0.3185,0.3186,0.3159,0.3156,0.3148,0.311,0.3108,0.3139,0.3137,0.3136,0.3136,0,0,0,0,0,0,0,0.3239,0.3234,0.319,0.3202,0.3202,0.3204,0.3201,0.3175,0.3169,0.3189,0.319,0.3187,0.3159,0.3151,0.3148,0.3108,0.3139,0.3137,0.3135,0.3134,0.3041,0.304,0,0,0,0,0,0,0.3241,0.3236,0.3191,0.3189,0.3223,0.3202,0.3199,0.3188,0.3169,0.3168,0.3186,0.3187,0.3154,0.315,0.3146,0.3106,0.3136,0.3134,0.3133,0.3042,0.3041,0.304,0,0,0,0,0,0,0.3242,0.3237,0.3192,0.3212,0.3207,0.32,0.3187,0.3186,0.3178,0.3167,0.3165,0.3178,0.3155,0.315,0.3121,0.3104,0.3133,0.3131,0.3043,0.3042,0.304,0.3023,0,0,0,0,0,0,0.3244,0.3237,0.3225,0.3212,0.3206,0.3167,0.3186,0.3185,0.3174,0.3176,0.3159,0.3158,0.3155,0.3124,0.3119,0.3102,0.3129,0.3045,0.3043,0.3041,0.3025,0.3021,0.3017,0,0,0,0,0,0.3246,0.3219,0.3224,0.3218,0.319,0.3166,0.3162,0.3162,0.3173,0.316,0.3153,0.3158,0.3108,0.3121,0.3115,0.3097,0.3046,0.3043,0.3041,0.3026,0.3021,0.3017,0,0,0,0,0,0,0.3227,0.3217,0.3222,0.3191,0.318,0.3168,0.3151,0.3156,0.314,0.3142,0.314,0.3137,0.3107,0.3099,0.3115,0.3063,0.3078,0.3074,0.3069,0.3065,0.3061,0.3063,0.3127,0,0,0,0,0,0.322,0.3203,0.3195,0.3168,0.3162,0.3158,0.3147,0.3148,0.3136,0.313,0.3122,0.3108,0.309,0.3077,0.3059,0.3024,0.3021,0.3009,0.3005,0.3003,0.2999,0.2981,0.2976,0.3032,0.3032,0.3032,0,0,0.3203,0.3196,0.3185,0.3164,0.3155,0.3137,0.3153,0.3133,0.3119,0.3127,0.3099,0.3093,0.3078,0.3046,0.3032,0.3039,0.2983,0.2999,0.2997,0.2995,0.2978,0.2973,0.2968,0.303,0.303,0.303,0,0,0.3164,0.3157,0.3134,0.3126,0.3114,0.3112,0.3107,0.3095,0.3092,0.3065,0.3071,0.3054,0.3022,0.3011,0.3002,0.2962,0.2966,0.2956,0.2936,0.2919,0.2915,0.2911,0.2897,0.2892,0.2953,0.2953,0.2953,0,0.3144,0.3118,0.3121,0.3101,0.3092,0.3101,0.3078,0.3069,0.3051,0.3044,0.3053,0.3014,0.3004,0.2971,0.2962,0.2954,0.2948,0.2957,0.2915,0.2912,0.2908,0.2895,0.2889,0.2952,0.2952,0.2952,0.2952,0,0.3095,0.3077,0.306,0.3045,0.3034,0.3012,0.3011,0.3,0.3003,0.2999,0.2973,0.2962,0.2943,0.2936,0.2937,0.2903,0.2908,0.2916,0.2931,0.2901,0.2889,0.2884,0.295,0.295,0.2951,0.2951,0,0,0.3039,0.3029,0.3023,0.3017,0.3006,0.2991,0.2971,0.2954,0.2945,0.2933,0.2915,0.2889,0.2897,0.2887,0.2887,0.2872,0.2843,0.2882,0.2882,0.2875,0.2806,0.2799,0.2793,0.2846,0.2845,0.2845,0.2807,0,0.2999,0.2964,0.2968,0.2934,0.2918,0.2928,0.291,0.2901,0.2899,0.2884,0.288,0.2862,0.2875,0.2868,0.2854,0.2849,0.2828,0.2852,0.2829,0.2828,0.2831,0.2787,0.2779,0.2744,0.2802,0.2801,0.2801,0,0.2946,0.2935,0.2901,0.2895,0.2888,0.2872,0.2858,0.2844,0.2835,0.2834,0.2824,0.2828,0.2807,0.2824,0.2794,0.281,0.2802,0.2798,0.2797,0.2793,0.2812,0.2782,0.2732,0.2727,0.2793,0.2793,0.2794,0,0.291,0.2886,0.2863,0.2858,0.2849,0.2838,0.2834,0.2826,0.2816,0.2804,0.2798,0.2783,0.2775,0.2763,0.2763,0.2775,0.2734,0.275,0.2732,0.2732,0.2721,0.2721,0.2669,0.2717,0.2717,0.2717,0.2717,0,0.2863,0.2842,0.2847,0.2832,0.2809,0.2814,0.279,0.2787,0.278,0.2765,0.2773,0.2758,0.2759,0.2745,0.2744,0.2721,0.2717,0.2715,0.2715,0.2714,0.2714,0.2707,0.2709,0.2715,0.2716,0.2716,0.2716,0,0.2817,0.282,0.2795,0.2791,0.279,0.2773,0.2768,0.2755,0.2754,0.2735,0.2731,0.2729,0.2713,0.2712,0.2692,0.2692,0.2664,0.2666,0.2667,0.2667,0.2649,0.2651,0.259,0.2582,0.2635,0.2635,0.2634,0,0.2787,0.2772,0.2767,0.2758,0.2754,0.274,0.2732,0.2736,0.2727,0.2717,0.2704,0.2689,0.2677,0.265,0.2646,0.2631,0.2634,0.2614,0.2631,0.2631,0.2633,0.2634,0.2633,0.2609,0.2609,0.2608,0.2608,0,0.2734,0.2737,0.2725,0.2715,0.2705,0.2696,0.2688,0.268,0.2684,0.2674,0.2658,0.2649,0.2631,0.2615,0.2602,0.2596,0.2602,0.2603,0.2598,0.2596,0.2597,0.2596,0.2657,0.2604,0.2604,0.2604,0.2605,0.2605,0.2695,0.2682,0.2677,0.2664,0.266,0.2653,0.2641,0.264,0.2628,0.2614,0.2618,0.26,0.2593,0.2576,0.257,0.2556,0.2563,0.2555,0.2553,0.2551,0.255,0.2601,0.2554,0.2554,0.2554,0.2554,0.2554,0,0.2642,0.264,0.2629,0.2619,0.2609,0.2619,0.2611,0.2602,0.2587,0.2581,0.257,0.2553,0.2539,0.2535,0.2522,0.2511,0.2514,0.2508,0.2508,0.2507,0.2544,0.255,0.2506,0.2506,0.2506,0.2506,0.2506,0.2506,0.2613,0.2592,0.2595,0.2572,0.257,0.2555,0.255,0.2544,0.2539,0.252,0.251,0.2509,0.2503,0.249,0.2478,0.2477,0.2472,0.2464,0.2465,0.2499,0.2504,0.2508,0.2514,0.2463,0.2463,0.2429,0.2428,0.2428]}]]